Wind_Speed
18 18 20 22 20 17 18 19 20 21 20 20 19 19 20 19 18 17 17 16 15 14 14 13 12 12 13 14 15 14 13 12 12 12 13 14 16 17 16 15 14 14 14 14 15 15 16 16 16 15 14 13 12 12 12 12 13 13 13 13 14 14 14 15 15 15 14 15 15 15 15 16 15 15 15 16 17 18 19 19 20 20 21 21 20
23 23 22 23 24 24 24 23 24 24 22 21 21 21 21 21 20 18 18 17 17 18 18 16 15 14 14 14 14 14 14 14 14 14 14 15 16 17 17 17 16 16 16 16 16 16 16 16 16 15 15 14 14 13 12 12 13 13 14 14 15 15 16 16 17 18 18 17 18 18 19 19 19 18 18 18 18 19 20 21 21 22 22 22 22
26 24 23 25 29 31 29 26 26 26 25 24 24 23 22 22 21 19 19 18 18 20 20 20 18 17 16 16 16 16 16 17 17 18 17 17 17 17 18 18 19 19 19 19 18 18 17 17 16 16 16 15 15 14 13 13 13 13 14 14 15 15 16 17 18 19 20 20 20 20 21 22 23 23 22 22 22 22 22 22 23 23 23 24 24
26 25 25 26 29 30 29 26 26 26 26 26 25 24 22 22 22 21 20 20 21 21 22 22 21 20 20 20 21 21 21 21 21 21 21 20 20 19 19 20 21 21 21 21 22 21 20 20 20 19 18 17 17 16 16 15 15 15 15 15 16 17 17 18 19 19 21 22 23 23 23 23 24 25 25 25 25 25 25 25 26 25 25 26 27
27 28 28 28 29 29 28 27 26 26 26 26 27 26 25 24 25 25 24 24 25 25 24 24 24 23 23 24 25 26 26 25 24 24 26 26 25 24 23 23 23 23 24 24 24 24 24 23 23 23 22 21 20 19 18 18 18 17 17 17 18 19 19 20 21 21 22 23 24 25 25 25 26 26 26 27 27 28 28 29 29 29 29 29 30
30 30 30 30 29 28 27 27 27 27 25 26 28 30 29 27 25 26 27 27 27 27 27 27 27 27 27 27 28 29 29 28 27 28 30 31 32 32 31 28 26 25 25 25 25 26 27 26 25 24 24 23 22 21 21 21 20 20 20 20 21 22 22 22 23 23 24 25 26 27 27 27 28 28 28 28 29 30 30 31 32 32 33 33 34
32 30 30 30 28 27 27 28 29 28 26 25 26 27 27 26 25 26 27 28 28 28 27 27 28 28 29 29 29 30 31 32 32 32 32 31 31 30 28 26 25 24 25 26 26 28 29 29 28 27 27 26 26 25 25 24 23 22 22 23 24 24 24 24 24 24 25 26 27 28 29 30 30 30 30 30 30 31 32 32 33 34 34 35 36
32 31 31 30 29 29 27 25 25 27 27 26 26 27 28 29 29 29 27 27 28 28 27 26 26 27 29 30 30 31 33 35 35 34 33 31 28 27 26 26 26 25 25 24 25 28 30 30 31 31 31 31 31 30 29 28 27 26 26 27 26 25 25 26 26 26 27 27 28 30 31 32 33 32 32 32 31 31 32 33 34 36 36 37 38
34 32 30 28 29 30 29 27 26 27 30 29 26 25 27 29 31 31 28 25 26 27 29 29 30 31 32 32 33 34 36 37 38 37 35 34 32 32 31 30 29 29 28 27 27 28 30 32 33 33 34 34 35 34 34 32 32 31 31 30 29 28 29 29 30 30 31 31 32 33 33 34 35 34 34 34 33 32 33 33 34 36 37 38 39
34 33 30 31 33 33 34 34 31 28 31 33 30 29 29 29 30 31 31 29 30 31 32 33 35 36 36 37 37 38 39 39 40 39 38 37 36 35 34 33 32 33 33 33 33 32 32 33 34 35 36 37 38 38 37 36 36 35 35 34 33 33 34 34 35 35 36 36 36 37 36 37 37 37 36 37 37 36 36 36 36 36 37 38 39
35 34 33 33 35 35 35 35 33 33 35 36 36 37 37 35 35 35 37 38 39 38 38 38 39 40 40 38 37 37 39 40 41 41 40 39 39 38 37 36 36 36 36 36 37 37 37 37 37 37 38 39 40 40 40 40 39 39 38 37 37 39 40 41 41 40 40 39 39 39 39 38 39 40 39 39 40 41 41 41 40 40 39 39 39
36 36 35 35 35 36 36 36 35 37 39 39 40 41 40 40 40 40 41 43 44 43 43 42 42 42 41 41 39 40 41 43 44 45 44 43 43 42 40 39 38 38 38 38 39 39 39 38 38 38 38 41 42 41 41 42 42 42 43 43 45 46 46 46 45 43 42 41 40 40 41 41 41 42 43 43 43 44 45 45 45 44 43 42 41
38 38 39 39 38 38 38 39 38 39 39 39 40 41 41 41 42 43 44 45 45 45 44 44 44 44 44 45 45 46 46 46 47 48 48 46 46 45 43 41 41 41 41 41 41 41 41 40 39 38 38 41 43 40 40 43 44 46 47 48 49 48 48 47 46 45 43 42 42 42 43 43 43 44 45 46 46 46 47 47 48 47 46 45 44
40 41 43 43 41 40 40 40 40 39 38 37 38 39 40 41 43 44 45 46 45 45 45 45 44 44 45 47 48 49 49 49 49 49 48 46 44 44 45 44 44 45 45 44 44 46 46 44 42 41 41 43 43 42 42 44 45 46 47 48 48 47 47 46 46 46 45 45 45 45 45 45 46 46 47 48 48 48 48 48 49 49 49 48 47
40 42 43 43 42 40 39 39 39 39 38 38 39 40 41 42 44 46 46 47 47 47 47 48 47 46 45 46 47 47 48 48 47 48 48 48 47 47 48 48 49 49 49 48 47 48 48 47 45 44 45 47 48 46 45 45 45 46 47 47 47 47 47 46 46 47 47 47 47 47 47 47 47 48 48 48 49 49 49 49 49 50 50 50 49
45 45 45 44 44 43 42 40 40 40 40 41 42 43 44 45 47 48 49 50 51 52 52 51 50 49 48 46 46 46 46 46 46 47 47 48 49 50 51 51 51 51 51 50 50 50 50 50 50 49 50 51 51 49 48 47 47 48 49 48 48 48 48 48 48 48 48 48 48 48 48 48 48 48 48 48 49 50 50 50 51 52 52 51 50
51 50 49 48 47 46 45 44 43 43 44 45 46 47 49 49 50 51 52 53 54 54 54 53 53 52 50 49 48 47 46 47 47 47 47 47 48 49 49 50 50 50 50 50 50 50 50 51 51 51 52 53 53 52 51 50 50 50 50 50 50 50 50 50 50 50 50 49 48 48 48 49 49 49 49 49 50 51 52 52 54 55 55 54 53
53 53 53 52 51 49 48 48 49 49 50 50 51 51 52 52 52 53 53 54 54 54 54 53 53 52 52 51 50 49 48 48 48 48 48 47 47 48 48 49 49 50 50 50 50 50 49 50 50 50 51 52 52 52 52 51 51 52 51 51 51 51 51 50 50 50 49 49 49 49 49 50 50 50 50 51 52 54 54 54 55 56 57 56 56
51 53 54 54 54 54 53 53 53 53 53 53 53 53 52 53 53 54 55 55 55 54 53 53 53 53 53 52 52 52 51 51 50 50 49 49 49 50 50 50 51 51 51 52 52 51 51 51 50 50 50 50 50 51 51 51 52 52 51 51 50 50 49 49 49 49 48 48 48 49 50 51 51 52 53 53 54 55 56 56 57 57 57 57 57
51 52 53 54 55 56 56 55 54 53 52 52 52 52 52 53 54 55 56 56 56 55 53 53 53 54 54 54 54 54 53 53 53 52 52 52 52 51 51 50 50 50 50 50 51 51 51 51 51 51 50 49 49 50 51 51 51 51 50 50 49 49 49 49 49 49 48 48 49 50 51 52 53 54 55 56 57 57 58 58 58 58 58 57 57
54 54 54 55 56 57 58 58 57 55 53 53 53 54 54 54 54 55 56 56 56 55 54 53 53 54 55 54 54 54 53 53 53 52 52 51 50 49 48 47 47 47 47 47 47 48 49 49 49 49 49 49 49 50 51 51 51 50 50 49 49 50 50 50 50 50 50 50 51 52 53 54 55 56 57 58 58 58 59 59 59 59 59 59 59
57 57 56 55 55 56 59 61 62 61 59 58 58 58 57 56 55 54 54 54 54 54 54 53 53 53 54 54 53 52 51 50 50 49 48 48 47 46 45 45 44 44 44 45 45 46 47 47 47 48 49 49 50 50 50 50 50 50 50 50 51 51 51 50 50 51 51 52 53 54 55 56 57 58 58 58 58 58 59 58 58 59 59 59 60
62 63 63 63 62 60 61 63 65 65 64 64 62 61 60 59 58 56 53 51 51 52 52 52 51 51 52 52 52 50 49 49 48 48 47 46 45 45 44 44 43 43 43 43 44 44 45 46 47 48 48 49 49 49 49 49 50 50 50 50 51 50 50 50 50 51 52 53 54 54 55 56 57 57 57 57 57 57 58 57 57 58 58 58 59
68 67 68 68 68 67 66 65 66 68 68 68 67 65 63 61 60 57 54 52 50 49 48 48 49 49 50 51 51 50 49 49 48 48 47 46 45 44 44 43 43 42 42 42 43 44 45 46 46 47 47 48 48 48 48 49 49 50 50 49 49 49 49 49 50 51 51 52 52 53 53 54 55 55 55 56 56 56 56 56 56 56 56 57 57
73 73 73 73 71 71 70 69 70 70 70 69 67 65 63 61 59 57 55 52 50 49 48 47 47 48 49 49 49 49 49 49 48 47 47 46 45 44 43 43 42 42 42 41 42 42 43 44 45 45 45 46 46 46 47 47 47 47 47 47 47 47 48 49 49 50 50 50 51 51 52 53 53 54 54 54 54 54 54 54 54 54 55 55 56
72 74 75 75 73 71 70 69 69 68 66 64 62 61 60 58 56 54 53 52 51 50 50 48 46 46 46 47 47 47 47 47 47 47 46 45 45 43 42 40 40 40 41 41 41 41 41 42 43 43 43 43 43 44 44 44 45 45 45 46 47 48 49 49 50 50 51 51 52 52 52 53 53 53 54 54 54 54 54 54 54 54 55 56 56
70 72 72 73 72 71 70 67 65 63 61 60 58 58 57 55 54 53 52 51 51 51 50 49 47 45 44 44 44 45 46 46 47 46 45 45 44 41 39 38 38 39 39 40 40 40 40 41 41 41 41 41 41 41 42 43 44 45 46 46 47 48 49 49 50 50 51 51 51 52 52 52 52 52 53 53 54 55 56 57 57 58 58 59 59
70 71 71 71 72 72 71 68 64 62 60 59 58 57 56 54 53 53 52 52 51 51 50 48 47 46 44 42 43 44 45 46 46 45 44 43 42 40 39 39 39 39 39 39 39 39 40 40 40 40 40 40 40 41 42 43 44 44 44 44 45 45 45 46 46 47 47 48 49 49 50 50 51 52 53 54 55 56 58 59 59 59 59 60 59
68 68 68 68 68 68 68 67 64 62 61 60 60 59 57 54 52 51 50 50 50 49 48 47 46 45 43 42 42 43 44 44 44 44 43 42 41 41 41 40 39 39 39 39 39 39 39 39 39 39 39 40 40 40 40 40 39 39 39 39 39 40 41 42 43 44 45 47 48 49 50 51 53 54 55 56 57 58 59 59 58 58 58 57 57
64 64 64 65 64 64 64 64 64 62 60 59 58 58 56 53 50 48 47 47 46 45 45 45 45 44 42 42 42 42 43 43 43 43 42 42 42 41 41 40 40 39 39 39 39 39 39 39 38 38 38 37 36 35 34 33 33 33 34 35 37 38 40 42 44 46 47 49 51 52 53 54 55 55 56 56 56 56 56 55 55 54 53 53 54
63 62 62 62 62 62 62 62 62 60 58 56 56 56 54 51 49 47 45 44 43 43 43 44 44 43 42 42 41 41 41 42 42 42 42 42 42 41 41 40 40 39 39 40 40 39 38 37 36 34 32 30 29 28 28 29 30 32 34 36 39 41 43 45 47 49 50 52 53 53 54 54 53 53 52 52 51 50 49 49 50 50 50 51 51
63 62 61 61 61 62 62 61 59 58 56 54 54 54 52 49 47 46 44 44 44 44 44 43 43 43 42 41 40 40 40 41 41 42 42 42 41 41 40 40 40 40 40 39 37 35 34 32 29 26 25 24 24 25 27 29 31 33 35 37 40 42 44 46 47 49 50 50 50 49 49 49 48 48 47 46 46 45 45 45 46 46 46 46 46
65 63 62 62 61 61 61 59 57 56 55 53 52 51 50 48 46 45 44 44 45 45 44 43 42 42 41 41 40 40 40 41 41 41 41 41 40 40 40 40 39 38 36 33 31 28 26 23 21 20 20 21 23 24 26 28 30 32 34 36 38 40 42 44 45 46 46 46 45 45 45 46 45 44 42 41 39 38 37 36 36 36 36 35 35
64 63 62 62 62 61 61 59 56 54 54 53 51 51 49 47 45 44 44 44 44 44 43 42 42 41 41 40 40 40 40 40 40 40 40 40 40 40 39 37 34 31 28 25 22 19 17 16 16 17 17 18 19 21 23 26 28 31 33 35 37 39 41 43 44 44 44 44 44 43 41 39 36 33 30 29 28 27 26 25 25 25 25 25 26
61 61 61 61 61 61 60 59 57 54 52 51 50 50 49 47 45 44 43 43 43 42 41 41 41 41 40 40 39 39 39 39 39 39 39 39 38 36 32 28 24 21 19 17 15 14 13 13 13 12 12 13 16 19 23 26 29 31 33 35 37 39 40 42 42 41 39 37 34 32 28 25 22 21 20 20 20 20 20 20 20 20 21 21 22
53 55 55 56 57 58 58 58 57 54 52 51 49 49 48 47 45 44 43 42 41 40 40 39 39 39 38 38 38 38 38 37 36 36 35 33 30 26 22 18 17 15 14 13 13 12 11 9 8 8 10 13 17 21 25 28 30 32 33 35 37 39 39 37 34 30 28 26 24 21 19 18 16 16 16 16 16 17 18 18 19 20 21 22 23
44 47 48 49 51 52 53 54 53 53 52 50 48 48 47 46 44 43 42 41 40 39 38 37 37 36 36 35 34 34 33 31 30 29 27 24 20 16 15 15 15 14 14 13 12 9 7 5 5 7 11 14 18 23 27 29 31 32 34 36 38 37 32 27 24 22 22 22 20 18 17 15 13 13 14 14 16 17 19 20 22 24 25 26 26
29 32 35 38 41 44 46 47 48 48 48 47 46 45 45 44 43 42 41 40 39 38 36 34 33 32 30 29 28 27 26 25 23 21 18 16 15 16 17 16 15 15 14 12 10 8 6 4 5 8 12 15 19 24 27 30 31 32 34 36 35 31 25 21 20 20 19 18 17 15 13 11 10 11 13 15 18 20 22 24 25 27 27 27 26
16 18 21 24 28 32 34 36 38 40 41 41 40 40 39 39 39 38 38 36 35 33 31 29 27 25 24 24 23 21 20 19 17 15 15 17 19 19 17 16 16 15 13 11 10 8 6 4 5 9 12 16 19 23 27 30 31 32 33 33 29 25 21 19 18 17 16 15 14 11 9 8 9 12 14 17 19 21 22 23 24 24 24 24 24
13 15 16 18 19 21 24 27 28 30 31 32 32 32 32 32 32 32 31 30 28 25 23 22 21 20 20 19 18 18 18 18 18 17 19 20 19 18 17 17 17 15 13 12 11 8 5 3 6 9 12 15 19 23 27 30 30 32 33 30 24 19 18 17 15 14 13 12 11 8 8 9 11 13 15 17 17 17 18 19 20 20 20 21 21
11 15 18 19 19 19 19 19 19 19 20 22 24 25 27 27 27 26 25 23 21 19 18 18 18 18 17 17 17 18 19 19 20 20 20 19 18 18 18 18 17 15 14 13 11 7 3 4 6 9 12 15 19 22 27 30 31 32 34 30 22 17 16 15 13 11 10 11 10 9 10 11 12 13 15 15 14 14 16 19 19 19 17 17 17
3 9 13 16 17 17 17 18 18 18 19 22 23 24 24 24 23 22 20 19 19 19 18 17 17 17 17 17 17 19 19 19 19 19 19 18 18 19 19 18 16 15 15 13 9 5 4 5 7 9 12 15 18 21 26 30 31 32 34 32 25 18 16 14 12 9 9 10 10 10 11 12 12 13 14 14 13 14 17 19 19 18 16 14 13
10 9 7 9 11 12 14 19 21 21 19 20 21 21 21 21 20 19 19 19 19 19 18 17 17 17 17 17 18 18 18 17 17 17 18 19 19 18 17 17 16 15 14 11 8 7 6 6 8 10 12 15 17 21 25 29 31 32 34 34 30 22 17 15 13 10 10 10 10 10 12 12 11 12 14 13 12 15 18 19 18 17 16 14 12
14 16 15 15 16 17 18 19 20 20 19 19 19 19 18 18 18 18 18 19 19 18 18 17 17 17 17 17 17 17 16 16 17 18 19 18 17 17 16 15 15 14 12 10 9 9 7 7 8 10 12 14 17 20 23 27 31 33 34 35 34 27 20 16 13 11 10 9 10 12 14 13 12 14 15 13 13 15 18 18 17 17 15 13 11
12 13 14 15 16 18 18 18 18 17 17 16 16 15 16 16 17 18 18 18 18 18 17 17 17 16 15 15 15 16 17 19 20 20 18 17 17 16 14 13 13 13 11 11 11 10 8 8 9 10 12 14 16 19 22 26 30 33 34 35 34 31 24 17 13 10 10 10 11 14 15 12 12 15 17 15 13 14 15 15 16 16 14 12 10
10 9 10 11 11 12 13 13 14 14 14 13 12 13 15 15 16 17 18 18 18 17 17 17 15 13 12 12 15 18 20 21 20 18 16 15 15 13 12 12 13 12 11 12 12 11 8 9 10 10 12 14 16 18 21 24 28 32 34 35 35 33 29 22 15 11 10 10 12 15 14 11 11 15 17 14 12 12 12 12 13 14 14 12 11
12 11 12 12 11 11 12 13 13 14 14 13 13 14 15 15 16 17 17 17 17 17 16 14 12 11 13 16 19 21 21 19 17 14 13 12 11 11 12 12 12 11 12 13 13 11 9 10 10 11 12 14 15 17 20 22 26 29 32 34 35 34 32 27 19 14 11 10 12 14 12 10 11 15 14 11 10 11 12 11 12 13 13 13 12
16 15 14 14 13 13 14 15 15 15 15 14 13 14 15 15 16 16 16 16 15 14 13 11 12 15 18 20 20 19 17 15 13 11 10 10 11 12 12 12 11 11 12 13 12 11 11 10 10 11 12 13 15 17 19 21 24 26 30 33 34 34 33 30 25 18 12 10 11 11 9 9 12 13 11 9 11 13 12 12 12 12 12 13 13
18 17 16 15 15 15 15 15 16 16 16 15 14 14 14 14 15 15 15 14 13 12 12 14 16 19 20 19 18 16 14 12 11 10 10 11 11 11 11 11 11 12 12 13 13 12 12 11 11 12 13 14 15 16 18 20 22 24 27 30 32 33 33 32 30 25 17 11 10 9 8 8 11 12 9 7 10 14 14 14 13 12 11 11 12
13 14 15 15 15 14 14 14 14 14 13 12 11 11 11 11 11 11 11 11 11 13 15 18 20 20 18 17 15 13 12 11 10 9 10 10 11 11 11 11 11 12 13 14 14 13 13 12 12 12 13 14 15 16 17 18 20 22 24 26 29 31 32 32 32 30 24 16 10 8 7 8 10 11 9 7 8 12 14 15 15 13 10 9 9
9 9 9 9 10 11 11 11 10 9 8 7 7 7 7 7 8 8 9 11 14 17 19 20 19 18 16 14 13 11 10 10 10 10 10 11 11 11 11 12 12 13 14 14 14 14 14 14 13 13 14 14 15 16 17 18 19 20 22 24 26 28 30 31 31 31 29 23 16 9 7 7 8 9 9 8 7 9 10 11 13 13 11 8 7
Wind_Direction
280 288 289 283 280 281 279 274 273 278 277 270 267 265 264 266 269 273 276 276 278 279 277 275 272 269 269 272 274 273 273 277 279 280 282 285 285 283 280 277 273 267 262 260 260 261 263 265 268 271 272 271 269 264 260 259 258 256 256 257 258 260 262 264 264 265 265 264 263 262 262 259 255 254 254 253 253 253 254 255 255 256 258 259 259
282 289 291 281 275 280 285 281 278 281 279 269 263 259 259 262 262 264 268 273 277 279 278 276 275 273 272 271 274 280 284 286 286 284 281 281 281 280 279 279 277 273 268 263 260 260 260 262 264 267 270 272 272 271 268 266 264 263 261 261 260 260 262 265 266 267 266 265 266 267 267 267 265 260 257 255 252 251 252 253 254 256 257 259 260
289 290 289 284 280 280 282 280 276 278 278 274 270 263 260 260 258 256 259 265 272 277 278 279 278 276 274 272 272 279 287 292 294 291 285 282 279 275 274 274 274 272 268 265 262 258 256 256 257 257 260 264 269 272 275 278 279 280 279 279 278 277 276 275 275 275 275 273 271 271 270 270 269 267 265 262 259 255 253 251 251 251 253 255 257
294 290 288 286 283 281 281 280 276 276 277 275 271 268 265 263 262 258 256 259 264 270 274 277 278 279 279 278 277 280 285 290 291 287 284 284 280 273 269 269 270 270 268 267 264 260 255 254 254 253 253 256 261 266 270 275 279 281 282 284 285 286 286 285 284 283 283 282 280 278 277 275 273 270 268 267 266 264 262 260 256 252 251 251 253
291 290 289 286 285 285 284 282 277 275 275 272 268 267 264 262 264 263 260 261 263 265 268 270 272 274 276 279 281 282 284 287 288 286 287 287 283 276 273 271 269 266 265 266 267 265 262 259 257 256 254 254 256 260 265 269 272 275 277 279 282 283 284 285 285 285 285 285 284 283 282 280 279 276 274 271 269 267 266 266 264 262 259 256 254
289 290 288 287 288 288 285 280 274 271 271 270 268 267 262 257 258 262 263 264 263 264 268 269 267 267 269 274 276 278 280 281 281 282 284 286 285 280 276 276 274 267 263 264 264 265 265 264 261 258 257 256 257 260 265 268 270 274 279 283 286 286 285 284 285 285 285 285 285 285 284 282 281 280 278 276 274 272 270 268 267 266 265 265 263
294 292 287 288 288 284 279 275 270 268 269 268 266 264 257 252 255 262 266 266 264 265 269 269 267 266 268 271 271 270 273 276 276 277 278 283 286 281 277 278 277 273 270 269 265 263 263 264 263 261 260 261 262 265 268 269 269 273 279 284 286 286 285 284 283 283 284 284 286 286 286 285 283 280 278 277 276 275 274 273 271 269 267 266 266
291 288 286 287 285 280 276 271 267 265 265 265 268 267 259 255 258 263 265 267 266 267 269 267 267 270 271 271 270 270 272 274 274 274 276 279 280 277 279 284 282 279 279 277 271 266 263 263 263 263 263 264 265 265 266 265 266 270 275 278 280 281 282 282 281 281 282 283 285 287 287 287 285 283 280 277 275 274 274 273 273 272 271 269 267
281 280 280 279 277 276 273 268 267 266 262 259 260 261 258 257 258 257 256 258 263 269 272 271 270 273 272 271 272 274 275 275 275 275 276 277 275 274 278 282 282 283 284 283 281 276 270 267 266 266 267 266 266 265 264 263 264 267 271 272 273 276 279 280 280 280 281 281 283 285 286 286 285 284 281 279 277 276 275 274 273 272 271 271 271
273 272 267 263 266 272 271 266 264 263 259 254 248 248 254 260 261 256 252 257 266 271 274 273 273 274 273 272 274 275 276 277 277 278 278 279 278 278 280 281 281 282 283 284 285 283 279 274 272 271 271 268 266 265 264 265 265 267 267 267 269 274 278 280 281 281 281 281 281 282 282 282 282 282 281 280 279 278 277 276 275 273 271 271 271
272 268 263 261 265 271 272 269 263 258 260 260 257 256 261 266 267 262 260 265 271 272 272 273 274 274 274 274 273 274 275 276 278 281 282 281 280 280 282 283 283 283 284 284 284 284 283 280 275 273 273 271 269 268 267 267 266 267 267 267 271 276 279 281 282 282 282 281 280 280 280 279 279 279 278 278 278 278 278 277 276 275 273 271 270
274 269 265 265 266 268 269 268 266 264 266 266 264 263 265 267 268 268 268 271 273 273 273 274 274 274 274 274 275 275 276 276 277 279 280 279 279 279 281 283 283 283 283 283 284 284 283 281 277 275 274 273 272 270 269 268 268 268 270 272 276 278 280 282 282 282 281 280 279 278 278 277 277 277 278 278 277 277 278 277 276 275 274 272 270
273 270 269 268 267 266 266 266 267 270 270 267 263 263 265 267 269 271 271 272 273 274 275 276 276 275 274 274 274 275 275 275 276 277 277 278 278 279 279 280 280 280 280 280 281 281 279 278 277 277 275 273 272 271 269 269 271 272 272 274 276 278 279 280 280 280 280 279 277 276 276 276 276 275 277 278 278 277 277 277 276 274 272 270 269
270 271 272 272 269 267 265 265 267 269 270 269 266 265 267 269 271 272 273 273 274 275 276 277 276 276 274 273 273 273 273 273 273 274 275 276 276 276 277 277 278 277 277 278 278 278 278 277 275 275 274 273 273 273 272 273 273 273 274 275 276 277 277 277 278 278 279 278 277 275 274 274 274 274 274 275 276 275 275 275 275 274 271 269 267
270 272 274 273 272 270 267 266 266 266 267 268 268 268 269 271 272 273 273 273 274 275 276 276 274 273 272 272 271 272 272 271 271 270 271 271 272 273 274 276 276 276 276 277 276 276 277 276 276 276 275 274 275 275 275 275 274 274 275 276 276 276 276 276 277 278 279 278 278 276 274 273 273 273 272 272 273 273 273 273 272 271 270 269 268
270 271 272 272 271 270 268 265 264 264 264 266 267 266 267 270 272 273 273 273 274 275 275 275 274 272 271 270 270 271 271 271 270 270 270 270 271 272 273 275 276 276 276 276 276 275 274 274 276 276 276 276 276 276 275 274 273 274 275 275 275 276 276 276 278 279 278 277 277 276 274 273 273 273 272 271 271 271 272 272 271 270 269 268 267
269 268 269 269 267 266 265 264 262 262 263 264 265 265 265 268 271 272 273 274 273 274 274 275 274 274 274 273 272 271 271 271 272 271 271 272 272 272 273 274 275 275 276 276 276 275 275 274 275 275 274 275 276 275 274 274 273 273 273 273 274 275 275 276 277 276 275 274 274 273 272 272 272 272 272 271 271 271 271 271 271 270 270 268 266
266 266 266 265 263 262 262 262 263 264 264 264 264 264 264 267 271 273 275 274 273 272 272 273 274 274 274 274 274 273 272 272 272 272 273 273 273 273 274 274 274 275 275 275 275 275 275 274 274 273 273 273 273 273 273 272 271 271 271 272 273 273 274 274 272 271 270 270 270 270 270 270 271 271 271 271 271 271 271 271 270 270 269 268 266
264 265 265 263 261 261 261 262 263 265 266 265 264 263 264 268 273 276 276 275 273 271 271 271 272 272 273 273 273 273 272 272 272 272 272 273 273 274 274 275 275 275 275 275 276 275 275 274 274 273 272 272 271 271 271 271 270 271 271 272 272 272 271 270 268 267 267 267 268 268 269 269 270 270 270 270 270 270 270 270 270 269 268 266 265
265 266 264 261 259 258 258 259 261 264 265 264 262 261 265 271 275 277 277 276 273 270 269 269 269 270 270 271 271 271 271 272 272 272 272 273 273 274 274 275 275 275 275 275 275 275 274 274 274 273 272 271 270 269 269 270 271 271 272 272 271 270 269 268 268 268 268 267 268 268 268 269 270 270 270 270 270 270 269 269 269 268 266 264 263
267 267 264 262 260 258 258 259 262 263 263 261 260 261 267 274 277 278 278 276 272 269 267 267 267 268 269 269 269 270 270 271 271 272 272 273 273 274 275 276 276 276 276 275 274 273 272 272 271 271 270 269 268 268 269 270 270 271 271 271 270 269 269 269 270 270 270 270 270 269 269 270 270 270 270 270 270 270 269 269 268 268 267 265 263
264 264 264 263 262 261 261 263 265 265 264 262 262 264 269 274 277 277 275 273 271 268 266 265 267 268 269 269 269 269 269 270 270 270 271 272 273 275 276 277 277 277 276 276 275 273 272 270 269 268 268 267 267 268 269 269 270 270 270 270 269 270 270 271 271 271 271 271 271 271 271 271 270 270 270 270 270 270 270 270 269 269 268 267 266
259 260 260 260 259 260 261 262 263 265 265 265 265 267 270 274 275 274 271 269 268 267 266 266 267 268 269 269 269 269 269 269 269 269 270 271 273 275 276 277 276 276 276 276 275 274 272 271 270 269 269 269 269 269 269 269 269 270 270 270 270 270 271 271 271 271 271 271 271 272 272 272 272 272 272 271 271 271 271 271 270 270 270 269 269
254 256 257 257 258 259 259 260 261 264 266 268 269 271 273 274 274 272 269 267 266 265 264 264 265 266 267 267 268 268 268 269 270 271 271 272 273 274 275 275 275 275 275 275 275 274 273 272 271 271 271 271 271 271 270 270 270 270 270 270 271 271 271 270 270 270 271 271 272 272 273 273 273 273 273 273 273 273 272 272 272 272 271 270 270
255 255 256 257 258 259 260 260 262 264 267 270 272 273 274 274 273 272 271 269 267 265 263 261 261 262 263 264 265 266 267 268 270 270 271 272 272 272 272 272 273 274 274 275 275 276 275 274 273 272 272 272 272 272 272 271 271 271 271 271 271 271 271 270 270 271 271 272 273 274 274 274 274 274 274 275 275 275 274 274 274 273 272 271 271
256 256 257 258 259 261 263 264 265 267 269 271 272 272 272 273 273 273 272 270 269 267 265 263 261 261 261 262 263 264 266 267 268 269 270 271 271 271 271 271 271 271 272 273 275 276 277 276 275 274 273 273 273 273 274 273 273 273 273 272 272 272 271 271 271 271 272 273 273 274 274 274 274 275 275 275 276 276 275 275 274 273 273 272 271
256 257 257 258 259 261 263 264 266 268 269 269 269 269 270 270 271 272 271 269 267 266 265 264 262 261 261 261 262 263 264 265 266 268 269 270 270 271 271 270 269 269 270 272 273 274 275 276 276 276 275 275 275 275 275 276 276 276 276 276 276 275 275 275 274 274 275 275 275 275 275 276 276 276 277 277 277 277 277 276 275 275 274 273 272
257 257 258 259 260 261 262 263 264 265 266 266 266 265 266 267 268 269 268 266 265 264 263 262 262 261 261 260 260 261 262 264 265 267 267 268 269 270 270 270 270 270 271 272 272 273 274 275 276 277 277 277 278 278 278 279 279 279 279 279 278 278 278 278 278 279 279 279 279 279 279 279 279 279 279 279 279 279 279 278 277 277 276 275 275
257 258 258 259 260 261 262 263 262 262 262 263 263 263 263 264 265 265 265 265 264 263 261 260 260 260 260 259 259 259 261 262 264 265 267 267 268 269 270 271 271 271 272 273 273 274 274 275 276 277 278 280 280 280 281 281 281 280 281 281 281 282 282 282 282 282 282 282 282 282 282 282 282 282 282 281 281 281 280 280 279 278 277 276 275
256 257 257 258 259 260 261 262 262 261 260 260 261 261 261 261 261 262 262 262 262 261 260 259 259 259 259 258 258 259 260 261 263 264 266 267 267 268 269 270 271 271 272 273 273 274 275 276 277 279 280 281 281 281 281 281 282 283 284 285 285 285 285 285 285 285 285 285 284 284 284 284 284 284 283 282 282 281 281 280 280 278 277 275 274
256 256 256 257 257 258 258 259 260 261 260 259 259 258 258 258 259 259 259 260 260 259 258 258 259 259 259 258 258 258 259 261 262 263 264 265 266 267 268 269 270 270 272 273 274 274 275 276 277 279 279 280 280 281 282 284 285 287 287 287 287 288 287 287 287 286 286 286 286 286 286 285 284 283 283 282 282 282 281 280 279 277 276 275 275
254 254 254 254 255 256 257 257 257 258 258 257 256 256 256 256 255 255 255 257 257 257 257 257 258 259 260 260 261 260 260 261 262 263 263 264 265 266 268 269 270 271 273 274 274 274 274 275 276 277 278 280 281 283 286 287 288 289 289 289 289 288 288 287 286 286 286 287 287 287 287 286 286 285 285 285 285 283 281 279 278 278 278 278 277
252 252 253 253 253 254 255 255 255 255 256 255 255 255 254 253 253 252 252 252 253 255 256 257 258 259 260 261 262 262 262 262 263 263 264 265 266 267 268 269 270 272 273 273 272 272 272 273 273 275 278 281 285 288 290 291 292 292 292 292 291 291 290 290 290 291 291 292 291 290 289 289 288 288 288 287 284 282 281 281 281 281 280 280 279
252 252 252 252 253 253 254 254 254 253 253 253 253 253 253 252 251 251 250 250 251 252 253 255 257 258 259 261 262 263 263 263 263 264 264 265 266 267 268 270 271 270 270 268 265 264 265 267 271 276 281 287 293 297 299 300 300 299 298 298 297 296 295 295 295 294 294 293 292 290 290 289 289 288 286 284 283 283 283 283 283 283 283 282 282
254 253 252 251 251 252 252 253 252 251 251 251 251 251 252 251 250 250 250 250 250 250 252 254 255 257 259 261 263 264 264 264 265 265 265 265 266 267 268 268 265 260 256 253 250 252 257 263 271 279 290 301 309 313 313 312 310 307 306 304 302 300 298 296 295 294 293 292 291 291 292 291 289 287 285 284 284 284 285 284 284 284 284 283 284
252 251 251 250 250 250 250 251 251 251 250 249 249 250 250 250 249 249 249 249 250 251 252 252 254 257 260 261 263 263 264 264 265 264 264 264 264 263 259 251 242 236 233 233 239 245 252 258 271 289 306 317 323 325 324 320 316 314 311 309 305 302 300 298 297 296 296 296 297 299 298 295 291 291 291 291 290 289 289 290 290 289 289 288 287
248 247 247 246 246 246 247 248 248 248 248 248 248 248 248 248 248 248 248 249 250 252 252 253 255 257 258 260 261 261 261 261 261 260 259 258 252 239 226 219 217 218 221 227 232 234 236 248 279 306 320 328 330 330 327 324 321 318 316 312 308 306 304 303 303 303 303 303 305 304 300 297 298 301 303 303 301 299 298 296 296 295 294 292 290
248 246 245 244 243 244 244 245 245 246 246 245 245 245 245 245 246 247 247 248 250 251 252 253 254 255 255 255 254 254 254 253 250 248 244 231 213 203 203 206 210 214 218 219 214 210 220 252 294 319 330 333 331 330 329 328 325 322 321 318 313 311 310 309 307 306 306 306 304 300 300 303 307 307 307 306 304 302 301 299 298 296 294 292 290
247 247 246 245 243 242 243 243 243 242 242 242 241 240 241 242 243 244 244 245 246 247 248 249 248 247 245 243 242 242 239 232 226 222 213 201 195 198 203 207 210 213 211 205 200 207 225 265 313 331 333 332 331 332 333 331 328 328 329 326 319 313 311 308 304 304 306 304 301 300 304 311 310 308 309 309 307 305 304 302 300 298 294 291 289
247 245 244 243 240 237 236 236 236 237 237 236 236 234 234 235 237 238 238 238 238 237 235 233 230 227 226 225 225 222 214 206 202 204 203 199 200 204 207 207 207 208 204 200 204 213 231 286 323 330 330 330 332 335 336 335 334 336 339 337 326 315 311 306 300 303 305 301 299 305 310 311 314 317 317 316 315 316 316 314 311 306 298 291 288
240 234 233 235 235 232 227 222 220 222 221 219 220 221 220 221 224 224 223 221 216 210 208 208 207 205 204 206 207 204 199 196 199 202 203 204 206 206 205 204 205 205 203 203 207 214 238 290 315 323 326 330 335 337 339 340 341 344 348 349 340 326 320 312 301 298 301 299 298 305 313 318 326 330 329 327 330 333 332 328 324 319 311 301 292
207 211 216 221 225 224 213 196 190 196 202 203 204 205 204 203 204 203 199 194 188 184 185 189 190 191 194 198 201 198 195 197 201 204 205 205 203 201 202 205 207 206 204 204 208 221 250 282 306 318 324 332 337 339 342 345 346 348 354 358 354 342 332 325 311 297 298 301 302 309 319 326 335 340 337 335 337 343 344 342 339 336 330 322 311
78 97 129 159 173 179 177 173 174 182 189 189 188 187 184 182 181 180 178 176 174 174 178 182 185 189 193 196 196 195 196 201 206 206 202 198 196 198 205 209 207 205 205 209 222 238 255 280 303 314 322 332 337 340 345 349 350 352 358 3 1 354 344 337 330 316 306 305 309 318 326 333 342 348 343 337 339 349 354 354 352 349 343 336 329
76 81 88 102 116 126 135 144 152 159 162 163 164 164 164 164 166 168 169 171 173 176 181 185 189 192 194 195 196 198 202 205 202 196 190 190 195 202 207 207 205 207 213 226 238 244 256 282 298 308 320 330 336 343 348 351 352 356 1 4 4 2 354 344 339 336 327 321 324 331 335 339 345 348 344 341 345 353 356 356 356 355 350 344 340
73 76 82 93 104 111 119 126 134 141 146 148 149 153 156 159 162 165 168 173 178 180 182 185 188 190 194 199 203 203 200 195 189 185 186 194 201 204 204 207 212 217 227 240 244 244 257 282 292 304 318 327 335 345 350 351 353 358 2 3 5 6 2 351 339 332 329 327 330 335 337 337 339 340 339 338 345 352 354 355 358 359 356 354 356
85 88 96 105 112 117 124 132 141 147 149 149 151 156 159 161 165 168 171 175 177 179 181 185 189 194 200 203 199 192 186 183 183 186 192 200 204 206 211 218 223 228 239 247 245 246 261 280 290 302 316 326 336 346 349 351 355 360 1 2 4 7 7 1 347 329 321 322 329 333 334 332 334 337 336 335 343 353 355 353 356 2 5 6 11
96 105 115 123 131 136 141 148 153 156 157 159 163 165 166 169 171 171 171 174 178 182 187 192 196 197 195 189 183 180 180 181 186 192 199 207 214 219 224 227 232 241 250 251 248 251 265 279 289 301 313 325 336 344 347 351 357 0 1 1 3 6 9 8 360 340 321 317 325 330 331 331 337 341 341 343 355 2 359 354 358 8 13 15 18
96 102 112 121 128 134 139 144 148 151 155 161 164 166 168 172 172 171 173 178 184 189 194 196 191 186 182 178 177 179 182 185 190 200 211 220 226 228 229 233 241 250 255 255 254 258 267 278 289 300 311 323 335 340 344 350 357 0 1 1 2 4 8 12 10 359 338 319 320 327 328 332 341 345 346 358 14 17 11 5 9 17 21 22 22
102 106 110 115 120 126 132 138 143 147 150 152 155 157 162 166 169 172 177 183 188 191 192 188 181 177 175 176 179 184 188 192 200 214 225 230 232 233 234 239 247 255 259 260 258 261 268 278 287 298 309 320 330 335 340 347 354 358 360 1 1 2 6 11 14 11 0 339 324 325 325 327 337 344 347 4 25 28 23 19 20 24 28 30 31
102 109 115 121 126 131 136 141 146 148 148 147 146 146 151 158 163 169 175 183 187 188 185 180 176 174 176 180 186 191 196 205 216 226 233 237 239 239 239 244 250 257 261 261 261 264 271 278 285 296 306 315 323 330 336 343 350 354 357 358 359 1 4 8 12 14 12 2 343 328 318 319 331 341 346 0 23 29 25 21 23 25 28 37 50
82 93 105 116 125 131 137 142 148 150 149 147 143 140 143 151 160 169 177 183 183 180 177 176 176 178 182 187 194 202 212 222 230 237 242 244 246 247 248 251 255 258 261 262 264 267 271 276 284 293 302 310 317 324 330 337 344 350 353 354 356 360 4 7 9 12 14 13 4 348 322 311 321 333 339 350 11 24 21 16 17 19 22 33 61
Height
5728 5728 5728 5727 5727 5729 5731 5732 5733 5734 5735 5735 5735 5735 5735 5735 5736 5736 5736 5736 5736 5736 5736 5736 5736 5736 5736 5736 5736 5736 5736 5736 5737 5737 5738 5739 5739 5739 5740 5740 5740 5739 5739 5739 5738 5738 5738 5738 5738 5738 5738 5738 5738 5738 5738 5738 5738 5738 5738 5738 5738 5738 5738 5738 5738 5738 5739 5739 5739 5739 5739 5739 5739 5740 5740 5740 5740 5740 5740 5740 5740 5739 5739 5738 5738
5724 5725 5724 5724 5724 5726 5727 5728 5729 5729 5730 5731 5732 5733 5733 5734 5734 5734 5734 5733 5733 5734 5734 5734 5735 5735 5735 5735 5735 5735 5735 5735 5735 5735 5735 5736 5737 5737 5738 5738 5738 5738 5737 5737 5737 5737 5737 5737 5737 5737 5736 5736 5737 5737 5737 5736 5736 5736 5736 5737 5737 5737 5737 5736 5736 5736 5736 5736 5737 5737 5737 5736 5736 5737 5737 5737 5737 5738 5738 5737 5737 5737 5736 5736 5736
5720 5720 5720 5721 5721 5722 5723 5724 5724 5725 5726 5727 5727 5729 5730 5731 5731 5732 5732 5731 5731 5731 5731 5732 5732 5733 5733 5733 5733 5733 5734 5734 5734 5734 5734 5734 5735 5735 5736 5736 5736 5736 5736 5736 5736 5735 5735 5735 5735 5735 5735 5735 5735 5735 5735 5735 5734 5734 5734 5734 5734 5734 5735 5734 5734 5733 5733 5733 5734 5734 5734 5734 5734 5734 5734 5734 5734 5734 5734 5734 5734 5734 5734 5733 5733
5715 5715 5716 5717 5718 5718 5719 5720 5721 5721 5722 5723 5723 5725 5726 5727 5728 5728 5729 5729 5729 5729 5729 5729 5729 5730 5730 5730 5730 5731 5731 5731 5731 5731 5732 5733 5733 5733 5733 5734 5734 5734 5734 5734 5734 5734 5734 5733 5733 5733 5733 5733 5733 5733 5733 5733 5733 5732 5732 5732 5732 5732 5732 5732 5732 5732 5731 5730 5730 5730 5731 5731 5730 5731 5731 5731 5731 5731 5731 5730 5730 5731 5731 5730 5730
5712 5712 5713 5714 5715 5715 5715 5716 5717 5718 5719 5720 5720 5720 5721 5722 5723 5724 5725 5726 5726 5727 5727 5726 5726 5726 5727 5727 5727 5727 5727 5728 5728 5728 5728 5729 5730 5731 5731 5731 5731 5731 5731 5731 5731 5731 5731 5731 5731 5730 5730 5730 5730 5730 5730 5730 5730 5730 5730 5730 5730 5730 5730 5730 5729 5729 5729 5728 5727 5727 5727 5727 5727 5727 5727 5728 5727 5727 5727 5727 5726 5727 5727 5726 5726
5709 5710 5710 5710 5710 5710 5710 5712 5713 5714 5715 5716 5716 5716 5717 5719 5719 5720 5721 5722 5722 5723 5723 5723 5723 5723 5723 5724 5724 5724 5724 5724 5725 5726 5725 5725 5726 5726 5727 5727 5727 5728 5728 5729 5729 5728 5728 5728 5728 5727 5727 5727 5727 5727 5727 5727 5727 5727 5727 5727 5726 5726 5726 5726 5726 5726 5725 5725 5725 5724 5723 5724 5723 5723 5723 5724 5724 5724 5723 5723 5722 5722 5723 5722 5722
5706 5706 5705 5705 5706 5706 5706 5708 5709 5710 5711 5712 5713 5713 5714 5716 5716 5716 5717 5718 5718 5718 5718 5718 5718 5718 5720 5721 5721 5721 5721 5721 5722 5723 5723 5723 5722 5722 5723 5723 5724 5724 5725 5725 5726 5726 5725 5725 5725 5724 5724 5724 5724 5724 5724 5724 5724 5724 5724 5724 5723 5723 5722 5722 5722 5722 5722 5722 5721 5721 5720 5720 5720 5720 5719 5720 5720 5720 5719 5719 5718 5718 5718 5718 5717
5703 5703 5702 5702 5702 5703 5703 5704 5705 5706 5707 5708 5709 5710 5711 5712 5712 5713 5714 5713 5713 5712 5712 5712 5712 5714 5715 5716 5717 5717 5717 5717 5717 5717 5718 5719 5719 5719 5719 5720 5720 5720 5720 5721 5722 5722 5722 5722 5722 5721 5721 5721 5721 5721 5720 5720 5720 5721 5721 5720 5720 5719 5719 5719 5719 5718 5718 5718 5717 5717 5716 5716 5716 5716 5715 5715 5716 5716 5716 5716 5715 5714 5713 5713 5712
5700 5701 5701 5701 5700 5700 5701 5701 5702 5703 5704 5704 5705 5705 5706 5706 5706 5707 5708 5707 5706 5706 5707 5707 5708 5709 5710 5711 5712 5712 5711 5711 5711 5712 5713 5714 5715 5715 5715 5716 5716 5716 5716 5717 5718 5718 5718 5718 5718 5718 5718 5717 5717 5716 5716 5716 5716 5716 5716 5716 5716 5715 5715 5715 5715 5715 5714 5714 5713 5713 5713 5712 5711 5711 5711 5711 5711 5711 5711 5711 5711 5710 5709 5708 5707
5697 5697 5698 5698 5697 5696 5696 5697 5698 5699 5699 5699 5700 5699 5699 5700 5701 5702 5702 5701 5701 5701 5702 5703 5704 5704 5705 5705 5706 5706 5705 5705 5705 5706 5707 5708 5709 5710 5710 5710 5711 5711 5711 5712 5713 5713 5713 5713 5713 5713 5713 5712 5712 5712 5712 5712 5711 5711 5711 5711 5711 5710 5710 5710 5710 5710 5710 5709 5709 5709 5708 5707 5706 5706 5706 5706 5705 5706 5706 5706 5706 5706 5706 5705 5704
5692 5692 5693 5693 5692 5692 5692 5692 5693 5694 5693 5693 5694 5694 5694 5695 5696 5697 5698 5697 5697 5697 5698 5699 5700 5700 5700 5701 5701 5700 5700 5700 5700 5701 5701 5702 5703 5703 5704 5704 5705 5706 5706 5707 5707 5707 5707 5707 5707 5707 5707 5707 5706 5706 5707 5706 5706 5706 5705 5705 5705 5705 5704 5704 5704 5704 5704 5704 5703 5703 5703 5702 5701 5700 5700 5700 5700 5699 5699 5699 5700 5700 5700 5701 5700
5686 5687 5687 5688 5688 5688 5687 5687 5687 5688 5688 5689 5689 5689 5689 5690 5691 5692 5693 5693 5692 5693 5693 5694 5695 5695 5695 5696 5696 5696 5696 5696 5696 5697 5697 5697 5697 5697 5698 5699 5699 5700 5700 5701 5701 5701 5701 5701 5701 5702 5702 5700 5700 5701 5701 5701 5700 5700 5700 5700 5699 5698 5698 5698 5697 5697 5698 5698 5697 5696 5696 5696 5696 5694 5693 5694 5694 5693 5692 5692 5692 5693 5694 5694 5694
5680 5681 5681 5682 5683 5683 5683 5683 5683 5683 5683 5684 5684 5684 5685 5685 5685 5686 5687 5687 5687 5687 5688 5688 5689 5690 5690 5690 5691 5691 5692 5692 5692 5692 5692 5692 5691 5692 5692 5693 5693 5694 5694 5695 5695 5695 5695 5696 5696 5696 5696 5694 5693 5695 5696 5695 5694 5694 5694 5693 5692 5692 5691 5691 5690 5690 5690 5690 5690 5689 5688 5688 5689 5688 5686 5686 5686 5686 5686 5685 5685 5685 5686 5686 5687
5675 5675 5675 5676 5677 5678 5678 5677 5677 5677 5677 5678 5678 5679 5679 5679 5679 5680 5680 5680 5681 5682 5682 5683 5684 5685 5685 5685 5685 5685 5686 5686 5686 5686 5686 5686 5686 5686 5686 5687 5687 5688 5688 5689 5690 5689 5689 5689 5689 5690 5689 5687 5688 5689 5689 5688 5688 5687 5687 5686 5685 5685 5685 5684 5683 5683 5683 5683 5682 5682 5681 5680 5680 5680 5679 5678 5678 5678 5678 5678 5677 5677 5677 5678 5679
5670 5670 5670 5670 5671 5671 5672 5672 5673 5673 5673 5673 5673 5673 5673 5674 5674 5674 5674 5675 5676 5677 5678 5678 5679 5680 5680 5680 5679 5679 5680 5680 5680 5681 5680 5680 5680 5680 5680 5680 5681 5681 5682 5683 5683 5683 5682 5682 5682 5683 5682 5681 5681 5682 5682 5681 5681 5680 5679 5679 5679 5678 5677 5677 5676 5676 5676 5675 5674 5673 5673 5672 5671 5671 5670 5670 5669 5668 5668 5669 5669 5668 5668 5669 5671
5665 5666 5666 5666 5666 5666 5667 5667 5668 5668 5668 5668 5668 5668 5668 5668 5668 5669 5669 5670 5670 5671 5671 5672 5672 5673 5673 5674 5674 5673 5673 5673 5673 5674 5674 5674 5674 5673 5673 5673 5673 5674 5674 5675 5675 5675 5676 5675 5675 5675 5675 5673 5673 5674 5674 5674 5674 5673 5672 5672 5671 5671 5670 5669 5669 5668 5668 5667 5666 5665 5664 5664 5663 5662 5662 5661 5660 5659 5659 5660 5659 5659 5660 5661 5662
5659 5660 5661 5662 5662 5662 5662 5662 5663 5663 5663 5663 5663 5663 5663 5663 5663 5663 5664 5664 5664 5664 5664 5664 5664 5665 5665 5666 5666 5666 5666 5666 5666 5666 5666 5666 5667 5667 5667 5667 5667 5667 5667 5667 5667 5667 5667 5667 5667 5667 5667 5666 5666 5666 5666 5666 5666 5665 5665 5664 5664 5663 5662 5662 5661 5660 5659 5658 5657 5657 5656 5655 5655 5654 5653 5652 5651 5651 5651 5651 5650 5649 5650 5652 5653
5651 5652 5653 5654 5655 5656 5656 5656 5656 5657 5657 5657 5657 5657 5657 5657 5658 5658 5658 5658 5658 5658 5658 5658 5658 5658 5658 5658 5658 5659 5659 5659 5659 5659 5659 5659 5659 5659 5659 5660 5660 5660 5660 5660 5660 5660 5659 5659 5659 5659 5659 5658 5658 5657 5657 5657 5657 5657 5657 5657 5656 5656 5655 5654 5653 5652 5651 5650 5649 5648 5647 5647 5646 5646 5645 5644 5643 5642 5641 5642 5640 5640 5640 5641 5642
5644 5644 5645 5647 5648 5648 5649 5650 5650 5650 5650 5650 5650 5650 5651 5651 5651 5651 5651 5651 5652 5652 5652 5651 5651 5651 5651 5651 5652 5652 5652 5652 5652 5652 5652 5652 5652 5652 5652 5652 5652 5652 5652 5652 5652 5652 5651 5651 5651 5650 5650 5650 5650 5649 5648 5648 5648 5648 5648 5648 5648 5647 5646 5646 5644 5643 5642 5642 5640 5640 5639 5638 5638 5637 5636 5635 5634 5633 5632 5632 5631 5631 5631 5632 5632
5636 5637 5638 5639 5640 5640 5641 5642 5643 5643 5643 5643 5643 5644 5644 5644 5644 5644 5643 5644 5645 5645 5645 5645 5644 5644 5644 5645 5645 5645 5645 5645 5645 5645 5645 5645 5645 5645 5645 5645 5645 5645 5645 5645 5644 5644 5643 5643 5643 5642 5642 5642 5642 5641 5640 5640 5639 5639 5639 5639 5638 5638 5637 5636 5635 5634 5634 5633 5632 5631 5631 5630 5628 5628 5627 5626 5625 5624 5623 5622 5621 5621 5621 5622 5622
5628 5628 5629 5630 5631 5632 5633 5634 5635 5636 5637 5637 5637 5638 5638 5639 5638 5638 5637 5637 5638 5638 5638 5638 5637 5637 5637 5638 5638 5639 5639 5639 5639 5638 5638 5638 5638 5638 5638 5638 5638 5638 5638 5637 5637 5637 5636 5636 5636 5635 5634 5634 5633 5633 5633 5632 5631 5631 5631 5630 5630 5628 5628 5627 5626 5625 5625 5624 5623 5623 5622 5620 5619 5618 5617 5616 5615 5614 5613 5613 5612 5611 5611 5612 5612
5619 5619 5620 5621 5622 5622 5623 5624 5625 5627 5629 5630 5631 5631 5632 5633 5633 5632 5632 5632 5632 5631 5631 5631 5631 5630 5630 5630 5631 5632 5632 5632 5632 5632 5631 5631 5631 5631 5631 5631 5631 5631 5631 5630 5630 5630 5629 5629 5629 5628 5627 5627 5627 5626 5626 5625 5624 5624 5623 5622 5621 5620 5620 5619 5618 5617 5616 5615 5614 5613 5612 5611 5610 5609 5608 5607 5606 5605 5604 5604 5603 5603 5602 5602 5602
5610 5610 5610 5611 5612 5613 5614 5614 5615 5617 5619 5621 5622 5623 5624 5625 5626 5626 5626 5627 5627 5626 5625 5625 5624 5624 5623 5623 5624 5624 5625 5625 5625 5625 5625 5625 5626 5626 5625 5625 5624 5624 5624 5624 5623 5623 5622 5622 5621 5621 5620 5620 5620 5620 5619 5618 5617 5616 5615 5614 5613 5613 5612 5611 5610 5608 5607 5606 5606 5605 5603 5602 5601 5600 5600 5599 5597 5596 5596 5595 5595 5594 5593 5593 5592
5600 5600 5600 5601 5602 5603 5604 5605 5607 5608 5609 5612 5614 5615 5616 5616 5616 5617 5619 5620 5621 5621 5621 5620 5619 5618 5617 5617 5617 5618 5618 5618 5618 5619 5619 5619 5620 5620 5619 5618 5618 5618 5618 5617 5617 5616 5616 5615 5615 5615 5614 5614 5613 5612 5611 5610 5609 5609 5608 5607 5606 5604 5603 5602 5601 5600 5599 5598 5597 5596 5595 5594 5593 5592 5591 5590 5589 5588 5587 5586 5586 5585 5585 5584 5584
5590 5591 5591 5592 5593 5594 5595 5597 5598 5599 5601 5603 5605 5606 5606 5606 5607 5608 5609 5611 5612 5613 5614 5614 5613 5612 5611 5611 5611 5611 5612 5612 5612 5612 5613 5613 5613 5613 5613 5613 5612 5612 5611 5611 5611 5610 5610 5609 5609 5608 5608 5607 5606 5605 5604 5603 5602 5601 5600 5599 5598 5596 5595 5594 5593 5592 5592 5591 5589 5589 5588 5586 5585 5584 5583 5582 5581 5580 5578 5578 5577 5576 5575 5575 5575
5580 5581 5582 5584 5585 5586 5587 5589 5590 5592 5593 5595 5596 5597 5597 5597 5599 5600 5601 5602 5603 5604 5605 5606 5606 5606 5606 5605 5606 5606 5606 5606 5606 5606 5606 5606 5606 5607 5607 5607 5607 5606 5605 5605 5605 5605 5604 5603 5602 5602 5601 5600 5599 5598 5597 5596 5595 5594 5593 5592 5590 5589 5588 5587 5586 5585 5584 5583 5582 5581 5580 5578 5577 5576 5574 5573 5572 5571 5569 5569 5568 5567 5567 5566 5566
5571 5572 5573 5574 5576 5576 5578 5580 5582 5583 5585 5586 5587 5588 5589 5590 5591 5592 5593 5594 5595 5595 5596 5597 5598 5599 5599 5600 5600 5600 5600 5600 5600 5600 5600 5600 5600 5600 5601 5601 5600 5600 5600 5599 5599 5599 5598 5597 5596 5595 5595 5594 5593 5592 5591 5589 5588 5587 5585 5584 5583 5581 5580 5579 5578 5577 5576 5575 5574 5573 5571 5570 5568 5567 5566 5564 5563 5562 5560 5559 5558 5558 5557 5556 5556
5561 5563 5564 5565 5566 5567 5568 5571 5574 5574 5575 5577 5578 5580 5582 5583 5584 5584 5585 5586 5587 5588 5589 5590 5590 5591 5592 5593 5594 5594 5593 5594 5594 5594 5594 5594 5594 5594 5594 5594 5594 5594 5594 5594 5594 5593 5593 5592 5591 5590 5589 5588 5587 5585 5584 5583 5581 5580 5578 5577 5576 5574 5573 5572 5571 5569 5568 5567 5565 5564 5562 5561 5560 5558 5557 5555 5554 5552 5550 5548 5548 5547 5546 5545 5545
5551 5553 5554 5555 5557 5558 5559 5561 5563 5565 5566 5568 5570 5572 5574 5576 5577 5577 5578 5579 5580 5581 5582 5583 5584 5584 5586 5587 5587 5587 5587 5588 5588 5588 5588 5588 5588 5588 5588 5588 5589 5589 5589 5588 5588 5588 5587 5586 5586 5585 5583 5582 5581 5580 5578 5577 5576 5574 5573 5571 5570 5568 5567 5565 5564 5562 5560 5558 5557 5555 5554 5552 5551 5549 5548 5546 5544 5542 5540 5538 5537 5536 5535 5535 5534
5541 5543 5545 5546 5548 5549 5551 5552 5553 5555 5557 5560 5561 5563 5565 5568 5569 5570 5571 5572 5574 5575 5576 5576 5577 5578 5579 5580 5581 5581 5581 5582 5582 5582 5583 5582 5582 5582 5583 5583 5583 5583 5583 5583 5582 5582 5582 5581 5580 5579 5578 5577 5576 5575 5574 5572 5571 5569 5567 5566 5564 5562 5560 5558 5556 5554 5552 5550 5548 5546 5545 5543 5541 5540 5538 5536 5534 5533 5530 5528 5527 5526 5525 5524 5523
5531 5533 5535 5537 5539 5540 5542 5543 5545 5546 5549 5552 5553 5555 5557 5560 5562 5564 5565 5566 5567 5568 5569 5570 5570 5571 5572 5573 5574 5575 5575 5575 5576 5576 5577 5577 5577 5577 5577 5577 5577 5577 5577 5577 5577 5577 5576 5576 5575 5574 5574 5573 5572 5571 5569 5568 5566 5564 5562 5560 5558 5556 5553 5551 5549 5547 5544 5542 5540 5538 5536 5534 5532 5530 5528 5526 5525 5523 5521 5519 5517 5516 5515 5514 5513
5521 5524 5526 5528 5530 5531 5532 5535 5537 5539 5541 5543 5545 5547 5550 5553 5555 5557 5558 5560 5561 5561 5562 5563 5564 5565 5566 5567 5568 5569 5569 5569 5570 5570 5571 5571 5571 5572 5572 5572 5572 5572 5572 5572 5572 5572 5572 5571 5571 5570 5570 5569 5568 5567 5565 5564 5562 5560 5557 5555 5552 5550 5547 5544 5542 5539 5537 5534 5532 5530 5527 5525 5523 5521 5519 5518 5516 5514 5512 5511 5509 5508 5507 5506 5505
5512 5514 5516 5518 5520 5522 5524 5526 5529 5531 5533 5536 5538 5540 5542 5545 5548 5550 5552 5553 5554 5555 5556 5557 5559 5559 5560 5561 5562 5562 5563 5563 5564 5565 5565 5566 5566 5566 5566 5566 5566 5567 5567 5567 5567 5567 5567 5567 5567 5567 5566 5566 5564 5563 5561 5560 5557 5555 5552 5550 5547 5544 5541 5537 5534 5531 5529 5526 5524 5521 5519 5517 5515 5513 5512 5510 5508 5507 5505 5504 5503 5501 5500 5499 5498
5502 5505 5507 5509 5511 5513 5515 5517 5520 5523 5525 5528 5530 5532 5535 5538 5541 5543 5544 5546 5547 5549 5550 5552 5553 5554 5554 5555 5556 5557 5557 5558 5559 5559 5560 5560 5560 5560 5561 5561 5562 5562 5562 5562 5563 5564 5564 5564 5564 5564 5563 5562 5561 5560 5558 5555 5553 5550 5547 5544 5541 5537 5534 5530 5527 5524 5521 5519 5516 5514 5512 5510 5509 5507 5506 5504 5502 5501 5500 5499 5498 5497 5495 5494 5492
5491 5494 5497 5500 5502 5504 5506 5508 5511 5514 5517 5520 5522 5525 5527 5530 5533 5535 5537 5539 5541 5543 5544 5546 5547 5548 5549 5550 5550 5551 5552 5553 5553 5554 5554 5555 5555 5555 5556 5557 5557 5558 5559 5559 5560 5561 5561 5562 5562 5561 5561 5560 5558 5556 5554 5551 5548 5545 5542 5538 5535 5531 5527 5524 5520 5517 5515 5512 5510 5508 5507 5505 5504 5503 5501 5500 5499 5498 5497 5496 5494 5493 5491 5490 5488
5481 5484 5487 5490 5492 5494 5496 5498 5502 5505 5508 5511 5514 5517 5520 5522 5525 5528 5530 5533 5534 5536 5538 5540 5541 5542 5543 5544 5545 5546 5546 5547 5548 5548 5549 5549 5550 5551 5552 5553 5554 5555 5556 5557 5558 5559 5559 5559 5559 5559 5558 5557 5555 5553 5550 5547 5544 5541 5537 5533 5529 5525 5521 5518 5514 5512 5509 5507 5506 5504 5503 5502 5500 5499 5498 5497 5496 5495 5493 5492 5491 5489 5488 5486 5485
5472 5475 5478 5480 5482 5485 5487 5490 5493 5496 5500 5503 5507 5510 5512 5515 5518 5521 5524 5526 5528 5530 5532 5534 5535 5536 5537 5539 5540 5540 5541 5542 5543 5543 5544 5545 5547 5548 5549 5550 5551 5553 5554 5555 5556 5556 5557 5557 5557 5556 5555 5553 5552 5549 5547 5544 5540 5537 5533 5528 5523 5519 5515 5512 5510 5508 5506 5504 5502 5501 5500 5499 5498 5497 5496 5495 5493 5492 5490 5489 5487 5485 5483 5482 5481
5467 5468 5470 5472 5474 5477 5479 5482 5485 5488 5492 5496 5500 5503 5505 5509 5512 5515 5518 5521 5522 5524 5526 5528 5530 5531 5533 5534 5534 5535 5536 5537 5538 5539 5541 5542 5544 5545 5546 5548 5549 5551 5552 5553 5554 5554 5554 5554 5554 5553 5552 5551 5549 5547 5544 5540 5537 5534 5529 5523 5517 5513 5510 5508 5506 5504 5503 5501 5500 5499 5498 5497 5496 5495 5494 5493 5491 5489 5487 5485 5484 5481 5479 5478 5476
5463 5464 5466 5467 5469 5471 5473 5476 5479 5482 5485 5489 5493 5497 5500 5504 5507 5510 5513 5515 5517 5520 5522 5524 5525 5527 5528 5529 5530 5531 5533 5534 5535 5537 5539 5540 5541 5543 5544 5546 5547 5548 5550 5550 5551 5552 5552 5552 5551 5550 5549 5548 5546 5544 5541 5538 5534 5530 5525 5519 5513 5509 5507 5505 5503 5502 5501 5499 5498 5497 5496 5495 5495 5494 5492 5490 5489 5486 5484 5482 5480 5478 5476 5474 5472
5461 5462 5463 5464 5465 5467 5469 5471 5474 5477 5481 5485 5489 5492 5495 5499 5502 5505 5508 5511 5513 5516 5518 5520 5521 5523 5524 5526 5527 5529 5530 5531 5533 5535 5537 5538 5540 5541 5543 5544 5545 5546 5547 5548 5549 5549 5549 5549 5548 5548 5547 5546 5544 5542 5539 5536 5532 5527 5521 5515 5510 5507 5505 5503 5501 5500 5499 5498 5497 5496 5495 5494 5493 5492 5490 5488 5486 5484 5482 5479 5477 5475 5472 5470 5468
5459 5460 5461 5462 5463 5464 5465 5468 5471 5475 5478 5482 5485 5488 5491 5494 5498 5501 5504 5507 5510 5513 5515 5517 5518 5520 5522 5523 5525 5526 5528 5530 5532 5534 5535 5537 5538 5540 5541 5542 5543 5544 5545 5546 5547 5547 5546 5546 5546 5545 5545 5543 5542 5540 5537 5533 5529 5524 5518 5512 5507 5504 5502 5501 5499 5498 5497 5496 5495 5494 5493 5492 5491 5490 5488 5486 5484 5482 5480 5477 5474 5472 5469 5467 5466
5458 5458 5459 5460 5461 5462 5464 5467 5470 5473 5476 5479 5482 5485 5488 5492 5495 5499 5502 5505 5508 5510 5512 5515 5517 5519 5520 5522 5523 5525 5527 5529 5531 5532 5534 5535 5536 5538 5539 5540 5541 5542 5543 5544 5544 5544 5544 5544 5544 5543 5543 5541 5540 5538 5535 5531 5527 5522 5517 5511 5506 5503 5500 5499 5497 5496 5495 5494 5494 5493 5492 5491 5490 5488 5487 5485 5483 5481 5478 5475 5473 5470 5467 5465 5464
5459 5459 5458 5459 5460 5461 5463 5466 5469 5473 5475 5478 5481 5484 5488 5491 5495 5498 5501 5504 5506 5509 5511 5514 5516 5517 5519 5520 5522 5524 5526 5528 5529 5531 5532 5533 5535 5536 5537 5538 5539 5540 5541 5541 5542 5542 5542 5542 5542 5542 5541 5539 5538 5536 5533 5529 5525 5521 5515 5510 5505 5502 5499 5497 5496 5495 5494 5493 5492 5492 5491 5490 5488 5487 5486 5484 5482 5479 5477 5474 5472 5469 5467 5465 5463
5463 5463 5462 5462 5462 5464 5465 5468 5471 5474 5476 5479 5482 5486 5489 5492 5495 5498 5500 5503 5506 5508 5511 5513 5515 5516 5518 5520 5521 5523 5525 5526 5528 5529 5531 5532 5533 5535 5536 5537 5537 5538 5539 5539 5540 5541 5541 5540 5540 5540 5539 5537 5536 5534 5531 5528 5524 5520 5514 5509 5505 5501 5498 5496 5495 5494 5493 5492 5491 5491 5489 5488 5487 5486 5485 5483 5481 5478 5476 5474 5472 5469 5467 5465 5463
5467 5467 5467 5468 5468 5469 5471 5473 5475 5477 5480 5483 5485 5488 5490 5493 5495 5498 5500 5503 5505 5508 5510 5512 5513 5515 5517 5519 5520 5522 5523 5525 5526 5528 5529 5531 5532 5533 5534 5535 5535 5536 5537 5538 5539 5539 5539 5539 5539 5538 5537 5536 5534 5532 5529 5526 5523 5518 5514 5510 5506 5501 5498 5496 5494 5493 5492 5491 5491 5490 5489 5487 5486 5485 5484 5482 5480 5478 5476 5474 5472 5470 5467 5465 5463
5470 5470 5471 5472 5473 5474 5475 5477 5479 5481 5483 5486 5488 5489 5491 5494 5496 5498 5501 5503 5505 5507 5509 5511 5512 5514 5516 5517 5519 5520 5522 5523 5525 5527 5528 5530 5531 5531 5532 5533 5534 5535 5535 5536 5537 5537 5537 5537 5537 5536 5535 5534 5532 5530 5527 5525 5521 5517 5513 5510 5506 5502 5498 5495 5493 5492 5491 5490 5490 5489 5488 5487 5486 5485 5483 5481 5479 5477 5476 5474 5472 5470 5468 5466 5464
5473 5473 5474 5475 5476 5477 5478 5480 5482 5484 5486 5488 5489 5491 5493 5495 5497 5499 5501 5503 5505 5507 5508 5510 5511 5513 5515 5516 5518 5519 5521 5523 5525 5526 5528 5529 5530 5530 5531 5532 5533 5533 5534 5534 5535 5535 5535 5535 5535 5534 5533 5532 5530 5528 5526 5523 5520 5517 5513 5510 5506 5502 5499 5495 5492 5491 5490 5489 5489 5488 5487 5486 5485 5484 5483 5481 5479 5477 5475 5474 5473 5471 5469 5467 5466
5476 5477 5478 5478 5479 5480 5482 5483 5485 5486 5488 5490 5491 5493 5495 5496 5498 5500 5502 5503 5505 5506 5508 5509 5511 5512 5514 5516 5517 5519 5521 5523 5524 5526 5527 5528 5528 5529 5530 5530 5531 5532 5532 5532 5533 5533 5533 5533 5532 5532 5531 5530 5528 5526 5525 5522 5519 5516 5513 5510 5507 5503 5500 5496 5493 5490 5489 5488 5488 5487 5486 5485 5485 5484 5483 5481 5479 5477 5476 5474 5473 5471 5470 5469 5467
5479 5480 5481 5482 5483 5484 5485 5486 5488 5489 5490 5491 5493 5494 5496 5497 5499 5500 5502 5503 5504 5506 5507 5508 5510 5512 5514 5516 5517 5519 5521 5522 5524 5525 5526 5526 5527 5528 5528 5529 5529 5530 5530 5530 5530 5531 5531 5531 5530 5530 5529 5528 5526 5525 5523 5521 5518 5516 5514 5511 5507 5504 5500 5497 5493 5490 5488 5487 5486 5486 5485 5485 5484 5483 5483 5481 5479 5478 5476 5475 5473 5472 5471 5470 5469
5483 5483 5483 5484 5485 5486 5487 5488 5489 5490 5491 5493 5494 5495 5496 5497 5498 5500 5501 5502 5503 5505 5506 5508 5510 5512 5514 5516 5517 5519 5520 5522 5523 5523 5524 5525 5525 5526 5526 5527 5527 5527 5528 5528 5528 5528 5529 5528 5528 5528 5527 5526 5525 5524 5522 5520 5518 5516 5513 5511 5508 5505 5501 5498 5494 5491 5489 5487 5486 5485 5485 5484 5483 5483 5482 5481 5480 5478 5477 5476 5475 5474 5472 5471 5470
5485 5485 5486 5486 5487 5487 5488 5489 5490 5491 5492 5493 5494 5495 5496 5497 5498 5499 5500 5501 5503 5504 5506 5508 5510 5512 5514 5515 5517 5518 5519 5520 5521 5522 5522 5523 5524 5524 5524 5525 5525 5525 5526 5526 5526 5526 5526 5526 5526 5525 5525 5524 5523 5522 5520 5519 5517 5515 5513 5511 5509 5506 5502 5499 5496 5493 5490 5487 5486 5485 5484 5484 5483 5483 5482 5481 5480 5479 5478 5477 5476 5475 5474 5473 5472